Printer-friendly version

IAU Minor Planet Center

Minor Planet Center

(162162) 1999 DB7

Orbital Elements

The following orbital elements are taken from MPO122969
(162162) 1999 DB7
Epoch 2007 Oct. 27.0 TT = JDT 2454400.5                 MPC
M 175.47825              (2000.0)            P               Q
n   0.74423215     Peri.   29.81708     -0.98814459     +0.13585258
a   1.2059531      Node   157.65051     -0.14890978     -0.96146937
e   0.1948643      Incl.   10.84018     +0.03736496     -0.23899944
P   1.32           H   19.9           G   0.15           U   1
From 145 observations at 3 oppositions, 1999-2007, mean residual 0".63.
An explanation of the orbital elements is available.

These orbital elements are also available in forms suitable for loading into a number of popular planetarium-type software programs.


Ephemeris

The following ephemeris is at intervals of five days. A daily ephemeris covering the same time interval is also available.

Personalized ephemerides for this (and other) objects may be generated using the Minor Planet & Comet Ephemeris Service.

Date    TT    R. A. (2000) Decl.     Delta      r     Elong.  Phase     V
2009 10 26    13 14.29   -05 05.1    1.907    0.971    13.7    14.1    22.0

Valid HTML 4.01!